Location: Ellerstadt
(49.4644°N, 8.2615°E)
Time: 22:39:57
(UTC+00:00)

YAOGAN 1 - Pass Details

Date: 03 March 2021
Orbit: 618 x 620 km, 97.9° (Epoch: 12 April)

Event Time Altitude Azimuth Distance (km) Brightness Sun altitude
Rises 17:38:03 0° 152° (SSE) 2,887 5.7 -4.8°
Reaches altitude 10° 17:40:15 10° 148° (SSE) 1,986 4.9 -5.2°
Maximum altitude 17:44:28 54° 71° (ENE) 757 2.7 -5.9°
Drops below altitude 10° 17:48:42 10° 354° (N) 2,001 5.2 -6.6°
Sets 17:50:56 0° 350° (N) 2,912 6.1 -6.9°
